CST,Max TemperatureF,Mean TemperatureF,Min TemperatureF,Max Dew PointF,MeanDew PointF,Min DewpointF,Max Humidity, Mean Humidity, Min Humidity, Max Sea Level PressureIn, Mean Sea Level PressureIn, Min Sea Level PressureIn, Max VisibilityMiles, Mean VisibilityMiles, Min VisibilityMiles, Max Wind SpeedMPH, Mean Wind SpeedMPH, Max Gust SpeedMPH,PrecipitationIn, CloudCover, Events, WindDirDegrees
2013-1-1,31,21,11,30,19,8,100,87,74,30.28,30.17,30.05,10,6,3,14,7,18,0.00,6,,352
2013-1-2,31,17,3,16,11,4,92,73,53,30.27,30.23,30.14,10,8,4,10,6,12,0.00,1,,214
2013-1-3,36,24,12,25,20,14,92,78,64,30.41,30.34,30.21,10,9,4,14,7,17,0.00,3,,268
2013-1-4,38,27,15,22,20,16,88,70,52,30.44,30.37,30.32,10,10,10,15,7,18,0.00,3,,225
2013-1-5,40,33,25,30,26,18,82,71,59,30.32,30.22,30.13,10,10,10,17,10,22,0.00,6,,210
2013-1-6,36,27,17,29,21,15,85,71,56,30.38,30.28,30.13,10,10,9,20,9,25,0.00,2,,292
2013-1-7,48,34,21,27,22,16,81,63,41,30.38,30.26,30.12,10,10,10,16,8,,0.00,0,,174
2013-1-8,55,42,29,41,27,18,72,48,24,30.18,30.12,30.05,10,10,10,17,12,22,T,3,Rain,188
2013-1-9,56,47,37,44,38,29,100,69,38,30.42,30.31,30.18,10,6,0,14,6,17,T,3,Fog-Rain,289
2013-1-10,50,44,37,50,43,29,100,94,55,30.35,30.01,29.80,10,4,0,21,13,29,0.10,8,Fog-Rain,100
2013-1-11,62,54,46,47,46,44,100,78,55,29.86,29.80,29.75,10,10,10,23,14,30,0.00,2,,190
2013-1-12,54,42,29,47,33,27,92,74,56,29.97,29.89,29.79,10,8,3,22,11,29,0.28,6,Rain-Snow,331
2013-1-13,29,20,11,26,18,9,100,89,77,30.38,30.14,29.91,10,10,6,18,10,24,0.00,6,,311
2013-1-14,26,19,12,16,12,9,92,80,67,30.49,30.42,30.34,10,10,10,9,4,,0.00,0,,20
2013-1-15,27,20,13,20,15,10,92,80,68,30.40,30.29,30.17,10,10,10,15,6,21,0.00,3,,30
2013-1-16,39,26,13,23,18,10,92,72,52,30.17,30.12,30.03,10,10,6,17,8,22,0.00,0,,243
2013-1-17,40,30,19,27,22,16,92,70,48,30.49,30.34,30.11,10,10,7,18,8,24,0.00,2,,327
2013-1-18,55,37,19,25,22,15,84,55,26,30.50,30.32,30.14,10,10,10,24,14,30,0.00,0,,191
2013-1-19,63,51,38,33,29,24,59,45,30,30.17,30.06,29.96,10,10,10,25,14,31,0.00,0,,238
2013-1-20,44,34,23,29,17,10,75,54,33,30.31,30.26,30.17,10,10,10,18,7,23,0.00,1,,353
2013-1-21,27,21,14,11,6,-3,74,55,36,30.39,30.36,30.31,10,10,10,21,10,26,0.00,3,,314
2013-1-22,26,20,14,5,1,-3,58,47,36,30.44,30.37,30.32,10,10,10,10,5,13,0.00,4,,75
2013-1-23,48,31,14,25,17,5,80,60,39,30.35,30.25,30.15,10,10,10,15,7,17,0.00,0,,251
2013-1-24,28,21,14,15,7,4,68,53,37,30.53,30.38,30.19,10,10,10,17,11,22,0.00,3,,81
2013-1-25,43,34,25,23,20,11,88,64,39,30.25,30.17,30.10,10,9,6,16,8,20,0.00,4,,256
2013-1-26,49,37,24,24,21,19,81,58,34,30.35,30.27,30.22,10,10,10,14,6,16,0.00,0,,85
2013-1-27,56,45,33,52,40,23,93,76,59,30.22,30.03,29.90,10,9,5,25,16,33,0.13,7,Rain,168
2013-1-28,73,65,56,59,56,53,93,73,53,29.93,29.89,29.81,10,10,10,30,16,38,0.00,6,,194
2013-1-29,66,58,50,58,54,48,96,85,73,29.82,29.59,29.44,10,6,0,31,14,46,1.89,7,Fog-Rain-Thunderstorm,181
2013-1-30,50,37,24,48,32,16,96,82,68,29.97,29.58,29.36,10,9,2,29,16,40,0.05,8,Rain-Snow,260
2013-1-31,34,22,10,21,13,-1,75,61,47,30.43,30.12,29.97,10,9,2,28,14,37,T,5,Snow,279